Kozani Airport, Greece

3:24 AM EEST on September 29, 2016 (GMT +0300)
Filippos

Weather History for LGKZ - September, 2013

Change the Weather History Date:

Monday, September 16, 2013

  Actual Average Record
Temperature  
Mean Temperature 60 °F -  
Max Temperature 68 °F - - ()
Min Temperature 53 °F - - ()
Degree Days  
Heating Degree Days 4    
Growing Degree Days 10 (Base 50)    
Moisture  
Dew Point 48 °F    
Average Humidity 68    
Maximum Humidity 94    
Minimum Humidity 49    
Precipitation  
Precipitation 0.00 in - - ()
Sea Level Pressure  
Sea Level Pressure 29.82 in    
Wind  
Wind Speed 3 mph ()    
Max Wind Speed 12 mph    
Max Gust Speed -    
Visibility 5.4 miles    
Events Rain , Thunderstorm    
T = Trace of Precipitation, MM = Missing Value Source: Averaged Metar Reports

Daily Weather History Graph

Daily Weather History Graph

Search for Another Location

Airport or City:

Trip Planner

Search our weather history database for the weather conditions in past years. The results will help you decide how hot, cold, wet, or windy it might be!

Date:

Astronomy

Sep. 16, 2013 Rise Set
Actual Time 7:14 AM EEST 7:39 PM EEST
Civil Twilight 6:47 AM EEST 8:07 PM EEST
Nautical Twilight 6:14 AM EEST 8:39 PM EEST
Astronomical Twilight 5:42 AM EEST 9:11 PM EEST
Moon 5:36 PM EEST (9/16) 3:39 AM EEST (9/16)
Length of Visible Light 13h 19m
Length of Day
12h 25m
Waxing Gibbous, 88% of the Moon is Illuminated
Sep 16
Waxing Gibbous
Sep 19
Full
Sep 27
Last Quarter
Oct 5
New
Oct 12
First Quarter

Hourly Weather History & Observations

Time (EEST) Temp. Dew Point Humidity Pressure Visibility Wind Dir Wind Speed Gust Speed Precip Events Conditions
12:20 AM 60.8 °F 42.8 °F 52% 29.95 in - Variable 3.5 mph - N/A   Unknown
12:50 AM 60.8 °F 42.8 °F 52% 29.95 in - Variable 2.3 mph - N/A   Unknown
1:20 AM 60.8 °F 42.8 °F 52% 29.92 in - Variable 3.5 mph - N/A   Unknown
1:50 AM 59.0 °F 42.8 °F 55% 29.92 in - North 4.6 mph - N/A   Unknown
2:20 AM 59.0 °F 42.8 °F 55% 29.92 in - Variable 1.2 mph - N/A   Unknown
2:50 AM 59.0 °F 44.6 °F 59% 29.92 in - Variable 1.2 mph - N/A   Unknown
3:20 AM 57.2 °F 44.6 °F 63% 29.92 in - NNW 4.6 mph - N/A   Unknown
3:50 AM 57.2 °F 44.6 °F 63% 29.89 in - NNW 4.6 mph - N/A   Unknown
4:20 AM 57.2 °F 44.6 °F 63% 29.89 in - Variable 3.5 mph - N/A   Unknown
4:50 AM 59.0 °F 44.6 °F 59% 29.89 in - Variable 3.5 mph - N/A   Unknown
5:20 AM 57.2 °F 44.6 °F 63% 29.86 in - Variable 3.5 mph - N/A   Unknown
5:50 AM 57.2 °F 44.6 °F 63% 29.86 in - Variable 2.3 mph - N/A   Unknown
6:20 AM 57.2 °F 44.6 °F 63% 29.83 in - Variable 3.5 mph - N/A   Unknown
6:50 AM 57.2 °F 44.6 °F 63% 29.83 in - NNW 4.6 mph - N/A   Unknown
7:20 AM 57.2 °F 44.6 °F 63% 29.83 in - Variable 3.5 mph - N/A   Unknown
7:50 AM 59.0 °F 46.4 °F 63% 29.83 in - Variable 3.5 mph - N/A   Unknown
8:20 AM 60.8 °F 46.4 °F 59% 29.83 in - Variable 1.2 mph - N/A   Unknown
8:50 AM 60.8 °F 48.2 °F 63% 29.80 in - Variable 1.2 mph - N/A   Unknown
9:20 AM 60.8 °F 48.2 °F 63% 29.83 in - Variable 1.2 mph - N/A   Unknown
9:50 AM 62.6 °F 48.2 °F 59% 29.80 in - Variable 3.5 mph - N/A   Unknown
10:20 AM 64.4 °F 46.4 °F 52% 29.83 in - Variable 3.5 mph - N/A   Unknown
10:50 AM 64.4 °F 46.4 °F 52% 29.80 in - South 4.6 mph - N/A   Unknown
11:20 AM 68.0 °F 48.2 °F 49% 29.80 in - South 4.6 mph - N/A   Unknown
11:50 AM 66.2 °F 48.2 °F 52% 29.80 in - SE 5.8 mph - N/A   Unknown
12:20 PM 64.4 °F 48.2 °F 56% 29.77 in - Variable 1.2 mph - N/A   Unknown
12:50 PM 66.2 °F 50.0 °F 56% 29.80 in 6.2 mi Calm Calm - N/A   Overcast
1:50 PM 57.2 °F 53.6 °F 88% 29.80 in 2.5 mi NNW 11.5 mph - N/A Rain , Thunderstorm Light Thunderstorms and Rain
2:50 PM 60.8 °F 57.2 °F 88% 29.80 in 6.2 mi WNW 4.6 mph - N/A   Mostly Cloudy
3:50 PM 64.4 °F 55.4 °F 73% 29.77 in 6.2 mi Calm Calm - N/A   Mostly Cloudy
4:50 PM 66.2 °F 53.6 °F 64% 29.77 in 6.2 mi Calm Calm - N/A   Scattered Clouds
5:50 PM 60.8 °F 53.6 °F 77% 29.77 in 4.3 mi SW 6.9 mph - N/A Rain , Thunderstorm Thunderstorms and Rain
6:50 PM 60.8 °F 51.8 °F 72% 29.77 in 6.2 mi WSW 5.8 mph - N/A   Mostly Cloudy
7:20 PM 59.0 °F 51.8 °F 77% 29.77 in - WSW 4.6 mph - N/A   Unknown
7:50 PM 57.2 °F 51.8 °F 82% 29.77 in - Variable 1.2 mph - N/A   Unknown
8:20 PM 57.2 °F 53.6 °F 88% 29.77 in - Variable 3.5 mph - N/A   Unknown
8:50 PM 55.4 °F 53.6 °F 94% 29.77 in - Variable 3.5 mph - N/A   Unknown
9:20 PM 55.4 °F 53.6 °F 94% 29.77 in - Variable 3.5 mph - N/A   Unknown
9:50 PM 57.2 °F 53.6 °F 88% 29.77 in - Variable 3.5 mph - N/A   Unknown
10:20 PM 57.2 °F 53.6 °F 88% 29.77 in - Variable 3.5 mph - N/A   Unknown
10:50 PM 55.4 °F 51.8 °F 88% 29.77 in - Variable 1.2 mph - N/A   Unknown
11:20 PM 53.6 °F 51.8 °F 94% 29.77 in - Calm Calm - N/A   Unknown
11:50 PM 53.6 °F 51.8 °F 94% 29.77 in - WSW 5.8 mph - N/A   Unknown